TimeCST,TemperatureF,Dew PointF,Humidity,Sea Level PressureIn,VisibilityMPH,Wind Direction,Wind SpeedMPH,Gust SpeedMPH,PrecipitationIn,Events,Conditions,WindDirDegrees,DateUTC
12:53 AM,46.9,43.0,86,30.18,8.0,Calm,Calm,-,N/A,,Clear,0,2012-11-23 06:53:00
1:53 AM,46.9,43.0,86,30.18,9.0,Calm,Calm,-,N/A,,Clear,0,2012-11-23 07:53:00
2:53 AM,46.9,43.0,86,30.19,7.0,Calm,Calm,-,N/A,,Clear,0,2012-11-23 08:53:00
3:53 AM,45.0,42.1,90,30.19,7.0,Calm,Calm,-,N/A,,Clear,0,2012-11-23 09:53:00
4:53 AM,44.1,41.0,89,30.20,7.0,Calm,Calm,-,0.01,,Clear,0,2012-11-23 10:53:00
5:53 AM,43.0,39.9,89,30.21,7.0,Calm,Calm,-,N/A,,Clear,0,2012-11-23 11:53:00
6:53 AM,44.1,41.0,89,30.21,6.0,Calm,Calm,-,N/A,,Clear,0,2012-11-23 12:53:00
7:53 AM,52.0,46.0,80,30.22,7.0,Calm,Calm,-,N/A,,Clear,0,2012-11-23 13:53:00
8:53 AM,57.9,48.0,70,30.21,10.0,Calm,Calm,-,N/A,,Clear,0,2012-11-23 14:53:00
9:53 AM,64.9,46.9,52,30.19,10.0,Variable,6.9,-,N/A,,Clear,0,2012-11-23 15:53:00
10:53 AM,68.0,48.0,49,30.16,10.0,Variable,5.8,-,N/A,,Clear,0,2012-11-23 16:53:00
11:53 AM,68.0,48.0,49,30.14,10.0,West,9.2,-,N/A,,Clear,280,2012-11-23 17:53:00
12:53 PM,68.0,52.0,56,30.13,10.0,WNW,10.4,17.3,N/A,,Mostly Cloudy,290,2012-11-23 18:53:00
1:53 PM,66.9,53.1,61,30.12,10.0,NW,10.4,-,N/A,,Overcast,320,2012-11-23 19:53:00
2:53 PM,63.0,53.1,70,30.13,10.0,NW,8.1,17.3,N/A,,Overcast,320,2012-11-23 20:53:00
3:06 PM,62.6,53.6,72,30.13,10.0,NW,6.9,-,N/A,,Overcast,320,2012-11-23 21:06:00
3:45 PM,62.6,53.6,72,30.13,10.0,WNW,6.9,-,N/A,,Overcast,300,2012-11-23 21:45:00
3:53 PM,62.1,53.1,72,30.13,10.0,NW,6.9,-,N/A,,Overcast,310,2012-11-23 21:53:00
4:35 PM,60.8,53.6,77,30.14,10.0,WNW,10.4,-,N/A,,Overcast,300,2012-11-23 22:35:00
4:53 PM,61.0,53.1,75,30.14,10.0,NW,6.9,-,N/A,,Overcast,310,2012-11-23 22:53:00
5:50 PM,59.0,51.8,77,30.16,9.0,NW,8.1,-,N/A,,Overcast,310,2012-11-23 23:50:00
5:53 PM,59.0,51.1,75,30.16,9.0,NW,6.9,-,N/A,,Overcast,310,2012-11-23 23:53:00
6:53 PM,55.9,50.0,80,30.17,9.0,NW,8.1,-,N/A,,Clear,320,2012-11-24 00:53:00
7:53 PM,53.1,48.9,86,30.17,8.0,WNW,3.5,-,N/A,,Clear,300,2012-11-24 01:53:00
8:53 PM,48.0,46.0,93,30.18,5.0,Calm,Calm,-,N/A,,Clear,0,2012-11-24 02:53:00
9:53 PM,51.1,39.0,63,30.18,10.0,NNW,6.9,-,N/A,,Clear,330,2012-11-24 03:53:00
10:53 PM,50.0,35.1,57,30.19,10.0,NNW,9.2,-,N/A,,Clear,340,2012-11-24 04:53:00
11:53 PM,48.0,34.0,58,30.19,10.0,NNW,5.8,-,N/A,,Clear,340,2012-11-24 05:53:00